Wilmington, DE

12:32 PM EDT on October 18, 2017 (GMT -0400)
New Castle County

Weather History for KILG - October, 2013

Change the Weather History Date:

Sunday, October 27, 2013

  Actual Average Record
Temperature  
Mean Temperature 49 °F 52 °F  
Max Temperature 60 °F 63 °F 79 °F (1963)
Min Temperature 38 °F 43 °F 26 °F (1936)
Degree Days  
Heating Degree Days 16 13  
Month to date heating degree days 177 237  
Since 1 July heating degree days 246 289  
Cooling Degree Days 0 0  
Month to date cooling degree days 49 15  
Year to date cooling degree days 1241 1142  
Growing Degree Days 1 (Base 50)    
Moisture  
Dew Point 32 °F    
Average Humidity 51    
Maximum Humidity 70    
Minimum Humidity 32    
Precipitation  
Precipitation 0.00 in 0.10 in 1.47 in (2003)
Month to date precipitation 1.92 3.01  
Year to date precipitation 40.17 36.09  
Snow  
Snow 0.00 in 0.00 in T in (1957)
Month to date snowfall 0.0 0.0  
Since 1 July snowfall 0.0 0.0  
Since 1 September snowfall 0.0 0.0  
Snow Depth 0.00 in    
Sea Level Pressure  
Sea Level Pressure 30.04 in    
Wind  
Wind Speed 7 mph (WNW)    
Max Wind Speed 18 mph    
Max Gust Speed 23 mph    
Visibility 10 miles    
Events      
T = Trace of Precipitation, MM = Missing Value Source: NWS Daily Summary

Daily Weather History Graph

Daily Weather History Graph

Search for Another Location

Airport or City:

Trip Planner

Search our weather history database for the weather conditions in past years. The results will help you decide how hot, cold, wet, or windy it might be!

Date:

Astronomy

Oct. 27, 2013 Rise Set
Actual Time 7:25 AM EDT 6:06 PM EDT
Civil Twilight 6:57 AM EDT 6:34 PM EDT
Nautical Twilight 6:26 AM EDT 7:05 PM EDT
Astronomical Twilight 5:54 AM EDT 7:36 PM EDT
Moon 12:21 AM EDT (10/27) 2:13 PM EDT (10/27)
Length of Visible Light 11h 36m
Length of Day
10h 40m
Last Quarter, 44% of the Moon is Illuminated
Oct 27
Last Quarter
Nov 3
New
Nov 10
First Quarter
Nov 17
Full
Nov 25
Last Quarter

Hourly Weather History & Observations

Time (EDT) Temp. Windchill Dew Point Humidity Pressure Visibility Wind Dir Wind Speed Gust Speed Precip Events Conditions
12:51 AM 48.9 °F - 33.1 °F 54% 29.94 in 10.0 mi West 4.6 mph - N/A   Overcast
1:51 AM 50.0 °F - 33.1 °F 52% 29.94 in 10.0 mi WSW 6.9 mph - N/A   Overcast
2:51 AM 48.9 °F - 32.0 °F 52% 29.94 in 10.0 mi West 8.1 mph - N/A   Clear
3:51 AM 48.0 °F - 30.9 °F 52% 29.94 in 10.0 mi West 5.8 mph - N/A   Clear
4:51 AM 44.1 °F 39.5 °F 30.9 °F 60% 29.95 in 10.0 mi West 8.1 mph - N/A   Clear
5:51 AM 44.1 °F 39.5 °F 30.9 °F 60% 29.97 in 10.0 mi WSW 8.1 mph - N/A   Clear
6:51 AM 43.0 °F 38.8 °F 30.9 °F 62% 29.99 in 10.0 mi West 6.9 mph - N/A   Clear
7:51 AM 44.1 °F 40.1 °F 32.0 °F 63% 30.01 in 10.0 mi West 6.9 mph - N/A   Clear
8:51 AM 48.0 °F - 33.1 °F 56% 30.05 in 10.0 mi West 6.9 mph - N/A   Clear
9:51 AM 52.0 °F - 33.1 °F 49% 30.06 in 10.0 mi WNW 11.5 mph - N/A   Clear
10:51 AM 54.0 °F - 30.9 °F 41% 30.06 in 10.0 mi WNW 13.8 mph - N/A   Clear
11:51 AM 55.0 °F - 30.9 °F 40% 30.05 in 10.0 mi WNW 12.7 mph - N/A   Clear
12:51 PM 57.0 °F - 30.0 °F 36% 30.03 in 10.0 mi West 11.5 mph 23.0 mph N/A   Clear
1:51 PM 57.9 °F - 28.9 °F 33% 30.02 in 10.0 mi West 10.4 mph 20.7 mph N/A   Clear
2:51 PM 60.1 °F - 30.9 °F 33% 30.02 in 10.0 mi NW 13.8 mph 21.9 mph N/A   Partly Cloudy
3:51 PM 59.0 °F - 30.9 °F 35% 30.03 in 10.0 mi NW 11.5 mph - N/A   Clear
4:51 PM 57.0 °F - 32.0 °F 39% 30.04 in 10.0 mi NW 9.2 mph - N/A   Clear
5:51 PM 52.0 °F - 32.0 °F 47% 30.06 in 10.0 mi NW 5.8 mph - N/A   Clear
6:51 PM 50.0 °F - 32.0 °F 50% 30.08 in 10.0 mi NNW 4.6 mph - N/A   Clear
7:51 PM 48.9 °F - 32.0 °F 52% 30.11 in 10.0 mi NW 3.5 mph - N/A   Clear
8:51 PM 45.0 °F 42.6 °F 33.1 °F 63% 30.13 in 10.0 mi NW 4.6 mph - N/A   Clear
9:51 PM 45.0 °F 43.5 °F 34.0 °F 65% 30.15 in 10.0 mi NNW 3.5 mph - N/A   Clear
10:51 PM 42.1 °F - 33.1 °F 70% 30.17 in 10.0 mi Calm Calm - N/A   Clear
11:51 PM 42.1 °F - 33.1 °F 70% 30.17 in 10.0 mi Calm Calm - N/A   Clear